THY155 LTFJ-EGCC

Flight info

Callsign THY155
Flight time N/A
Altitude 40000
Route TUDBU DCT ETUBA Q26 UPAMA DCT MOPUG DCT VAJDI DCT DITIS DCT RAPET DCT RUNEN DCT MAPOX DCT ABILU DCT SOGPO DCT PAM DCT PETIK DCT RAVLO Y70 OTBED
Aircraft A343/H-SDE2E3FGHIJ4J5M1RWXY/LB1D1

Departure

Time N/A
Airport Istanbul Sabiha Gökçen International Airport (LTFJ)

Arrival

Time 2026-05-05 11:17
Airport Manchester Airport (EGCC)
Time Latitude Longitude Altitude Speed Heading
2026-05-05 10:42 53.13565 1.40317 40002 ft 449 kts 279°
2026-05-05 10:43 53.13835 1.38015 39999 ft 449 kts 279°
2026-05-05 10:44 53.15025 1.27809 40001 ft 449 kts 279°
2026-05-05 10:44 53.16207 1.17594 40001 ft 449 kts 279°
2026-05-05 10:45 53.17380 1.07383 40002 ft 449 kts 279°
2026-05-05 10:45 53.18537 0.97220 40000 ft 449 kts 279°
2026-05-05 10:45 53.19116 0.92104 39640 ft 447 kts 279°
2026-05-05 10:46 53.19693 0.86989 39058 ft 449 kts 279°
2026-05-05 10:46 53.20268 0.81860 38396 ft 452 kts 279°
2026-05-05 10:46 53.20848 0.76676 37675 ft 454 kts 279°
2026-05-05 10:46 53.21423 0.71506 37113 ft 452 kts 279°
2026-05-05 10:47 53.21993 0.66367 36598 ft 450 kts 279°
2026-05-05 10:47 53.22553 0.61300 36074 ft 448 kts 279°
2026-05-05 10:47 53.23116 0.56196 35562 ft 447 kts 279°
2026-05-05 10:47 53.23677 0.51096 35009 ft 447 kts 279°
2026-05-05 10:48 53.24235 0.45968 34355 ft 450 kts 280°
2026-05-05 10:48 53.24795 0.40805 33603 ft 454 kts 280°
2026-05-05 10:48 53.25358 0.35595 32869 ft 456 kts 279°
2026-05-05 10:48 53.25917 0.30381 32136 ft 456 kts 280°
2026-05-05 10:49 53.26478 0.25143 31367 ft 457 kts 279°
2026-05-05 10:49 53.27036 0.19907 30686 ft 457 kts 279°
2026-05-05 10:49 53.27589 0.14706 30183 ft 452 kts 279°
2026-05-05 10:49 53.28133 0.09562 29593 ft 448 kts 279°
2026-05-05 10:50 53.28732 0.04493 29034 ft 442 kts 284°
2026-05-05 10:50 53.29816 -0.00290 28557 ft 437 kts 294°
2026-05-05 10:50 53.31108 -0.04775 28081 ft 431 kts 295°
2026-05-05 10:50 53.32427 -0.09244 27590 ft 426 kts 295°
2026-05-05 10:51 53.33727 -0.13660 27129 ft 420 kts 295°
2026-05-05 10:51 53.35008 -0.18034 26667 ft 415 kts 294°
2026-05-05 10:51 53.36271 -0.22361 26196 ft 412 kts 294°
2026-05-05 10:51 53.37523 -0.26665 25741 ft 409 kts 294°
2026-05-05 10:52 53.38761 -0.30933 25278 ft 405 kts 294°
2026-05-05 10:52 53.39984 -0.35159 24824 ft 401 kts 294°
2026-05-05 10:52 53.41197 -0.39354 24377 ft 398 kts 293°
2026-05-05 10:52 53.42397 -0.43517 23931 ft 394 kts 293°
2026-05-05 10:53 53.43569 -0.47587 23484 ft 391 kts 293°
2026-05-05 10:53 53.44743 -0.51672 23015 ft 387 kts 293°
2026-05-05 10:53 53.45905 -0.55726 22578 ft 384 kts 293°
2026-05-05 10:53 53.47060 -0.59758 22162 ft 381 kts 293°
2026-05-05 10:54 53.48201 -0.63753 21729 ft 378 kts 293°
2026-05-05 10:54 53.49333 -0.67721 21304 ft 376 kts 293°
2026-05-05 10:54 53.50458 -0.71670 20881 ft 373 kts 293°
2026-05-05 10:54 53.51571 -0.75583 20458 ft 370 kts 293°
2026-05-05 10:55 53.52676 -0.79475 20052 ft 368 kts 293°
2026-05-05 10:55 53.53773 -0.83343 19648 ft 365 kts 293°
2026-05-05 10:55 53.54859 -0.87183 19242 ft 362 kts 293°
2026-05-05 10:55 53.55938 -0.90999 18831 ft 360 kts 293°
2026-05-05 10:56 53.57007 -0.94791 18420 ft 357 kts 293°
2026-05-05 10:56 53.58067 -0.98554 17993 ft 355 kts 293°
2026-05-05 10:56 53.59121 -1.02304 17583 ft 353 kts 293°
2026-05-05 10:56 53.60165 -1.06033 17196 ft 352 kts 293°
2026-05-05 10:57 53.61001 -1.09862 16879 ft 349 kts 284°
2026-05-05 10:57 53.61586 -1.13833 16731 ft 349 kts 282°
2026-05-05 10:57 53.62128 -1.17814 16524 ft 348 kts 282°
2026-05-05 10:57 53.62664 -1.21782 16326 ft 347 kts 282°
2026-05-05 10:58 53.63199 -1.25741 16129 ft 346 kts 282°
2026-05-05 10:58 53.63729 -1.29649 15929 ft 346 kts 282°
2026-05-05 10:58 53.64257 -1.33555 15724 ft 345 kts 282°
2026-05-05 10:58 53.64789 -1.37495 15533 ft 344 kts 282°
2026-05-05 10:59 53.65319 -1.41430 15339 ft 343 kts 282°
2026-05-05 10:59 53.65847 -1.45351 15139 ft 342 kts 282°
2026-05-05 10:59 53.66363 -1.49205 14944 ft 342 kts 282°
2026-05-05 10:59 53.66882 -1.53084 14753 ft 341 kts 282°
2026-05-05 11:00 53.67402 -1.56982 14552 ft 340 kts 282°
2026-05-05 11:00 53.67921 -1.60878 14367 ft 340 kts 282°
2026-05-05 11:00 53.68437 -1.64770 14154 ft 340 kts 282°
2026-05-05 11:00 53.68953 -1.68662 13972 ft 339 kts 282°
2026-05-05 11:01 53.69458 -1.72486 13777 ft 338 kts 282°
2026-05-05 11:01 53.69967 -1.76358 13576 ft 338 kts 282°
2026-05-05 11:01 53.70252 -1.80275 13391 ft 328 kts 267°
2026-05-05 11:01 53.69792 -1.83924 13238 ft 319 kts 252°
2026-05-05 11:02 53.69043 -1.87387 13067 ft 309 kts 250°
2026-05-05 11:02 53.68300 -1.90734 12912 ft 300 kts 251°
2026-05-05 11:02 53.67561 -1.93991 12697 ft 295 kts 250°
2026-05-05 11:02 53.66819 -1.97197 12441 ft 292 kts 250°
2026-05-05 11:03 53.66082 -2.00375 12178 ft 291 kts 250°
2026-05-05 11:03 53.65348 -2.03542 11929 ft 289 kts 250°
2026-05-05 11:03 53.64616 -2.06696 11673 ft 289 kts 250°
2026-05-05 11:03 53.63879 -2.09844 11426 ft 287 kts 250°
2026-05-05 11:04 53.63144 -2.12966 11204 ft 286 kts 250°
2026-05-05 11:04 53.62408 -2.16088 10999 ft 286 kts 250°
2026-05-05 11:04 53.61679 -2.19209 10782 ft 286 kts 250°
2026-05-05 11:04 53.60946 -2.22312 10558 ft 284 kts 250°
2026-05-05 11:05 53.60222 -2.25363 10323 ft 283 kts 250°
2026-05-05 11:05 53.59315 -2.28304 10075 ft 284 kts 238°
2026-05-05 11:05 53.58165 -2.31013 9822 ft 284 kts 235°
2026-05-05 11:05 53.56980 -2.33674 9542 ft 283 kts 235°
2026-05-05 11:06 53.55793 -2.36319 9308 ft 282 kts 234°
2026-05-05 11:06 53.54606 -2.38956 9033 ft 282 kts 235°
2026-05-05 11:06 53.53419 -2.41567 8768 ft 280 kts 234°
2026-05-05 11:06 53.52256 -2.44145 8519 ft 280 kts 234°
2026-05-05 11:07 53.51085 -2.46758 8255 ft 279 kts 235°
2026-05-05 11:07 53.49914 -2.49367 7997 ft 279 kts 234°
2026-05-05 11:07 53.48746 -2.51966 7734 ft 279 kts 235°
2026-05-05 11:07 53.47568 -2.54559 7493 ft 278 kts 234°
2026-05-05 11:08 53.46364 -2.57096 7233 ft 278 kts 227°
2026-05-05 11:08 53.44738 -2.58845 6993 ft 281 kts 202°
2026-05-05 11:08 53.42859 -2.59792 6750 ft 283 kts 195°
2026-05-05 11:08 53.40940 -2.60581 6507 ft 284 kts 195°
2026-05-05 11:09 53.39016 -2.61346 6251 ft 285 kts 194°
2026-05-05 11:09 53.37118 -2.62103 5988 ft 282 kts 194°
2026-05-05 11:09 53.35224 -2.62860 5725 ft 277 kts 194°
2026-05-05 11:09 53.33385 -2.63599 5455 ft 265 kts 194°
2026-05-05 11:10 53.31649 -2.64297 5179 ft 249 kts 194°
2026-05-05 11:10 53.30003 -2.64937 4984 ft 237 kts 195°
2026-05-05 11:10 53.28410 -2.65548 4806 ft 233 kts 195°
2026-05-05 11:10 53.26838 -2.66133 4626 ft 231 kts 194°
2026-05-05 11:11 53.25241 -2.66086 4427 ft 232 kts 163°
2026-05-05 11:11 53.23829 -2.64832 4250 ft 231 kts 143°
2026-05-05 11:11 53.22612 -2.63110 4057 ft 229 kts 126°
2026-05-05 11:11 53.22005 -2.60737 3880 ft 221 kts 92°
2026-05-05 11:12 53.22007 -2.58207 3747 ft 217 kts 82°
2026-05-05 11:12 53.22162 -2.55691 3606 ft 217 kts 79°
2026-05-05 11:12 53.22541 -2.53309 3494 ft 209 kts 62°
2026-05-05 11:12 53.23291 -2.51314 3338 ft 199 kts 47°
2026-05-05 11:13 53.24165 -2.49546 3157 ft 195 kts 47°
2026-05-05 11:13 53.25011 -2.47817 2870 ft 190 kts 48°
2026-05-05 11:13 53.25836 -2.46120 2580 ft 186 kts 47°
2026-05-05 11:13 53.26631 -2.44494 2317 ft 180 kts 47°
2026-05-05 11:14 53.27417 -2.42887 2076 ft 176 kts 48°
2026-05-05 11:14 53.28180 -2.41322 1824 ft 171 kts 46°
2026-05-05 11:14 53.28911 -2.39822 1590 ft 161 kts 46°
2026-05-05 11:14 53.29590 -2.38433 1387 ft 146 kts 46°
2026-05-05 11:15 53.30204 -2.37175 1183 ft 134 kts 47°
2026-05-05 11:15 53.30782 -2.35998 970 ft 129 kts 47°
2026-05-05 11:15 53.31357 -2.34856 831 ft 130 kts 45°
2026-05-05 11:15 53.31934 -2.33663 657 ft 131 kts 47°
2026-05-05 11:16 53.32509 -2.32479 469 ft 130 kts 45°
2026-05-05 11:16 53.33072 -2.31328 302 ft 126 kts 47°
2026-05-05 11:16 53.33603 -2.30236 239 ft 102 kts 51°
2026-05-05 11:16 53.33951 -2.29510 230 ft 66 kts 50°
2026-05-05 11:17 53.34210 -2.28975 237 ft 54 kts 51°
2026-05-05 11:17 53.34431 -2.28518 230 ft 47 kts 51°
2026-05-05 11:17 53.34559 -2.28292 236 ft 21 kts 37°
2026-05-05 11:17 53.34687 -2.28177 237 ft 21 kts 22°
2026-05-05 11:18 53.34826 -2.28086 236 ft 21 kts 21°
2026-05-05 11:18 53.34906 -2.28004 238 ft 12 kts 41°
2026-05-05 11:18 53.34926 -2.27975 237 ft 0 kts 42°
2026-05-05 11:18 53.34934 -2.27959 239 ft 7 kts 50°
2026-05-05 11:19 53.34988 -2.27835 237 ft 20 kts 53°
2026-05-05 11:19 53.35093 -2.27614 238 ft 28 kts 51°
2026-05-05 11:19 53.35218 -2.27353 242 ft 13 kts 51°
2026-05-05 11:19 53.35253 -2.27281 243 ft 8 kts 51°
2026-05-05 11:20 53.35266 -2.27252 243 ft 5 kts 51°
2026-05-05 11:20 53.35313 -2.27197 247 ft 9 kts 20°
2026-05-05 11:20 53.35349 -2.27191 249 ft 7 kts 357°
2026-05-05 11:20 53.35398 -2.27223 250 ft 9 kts 328°
2026-05-05 11:21 53.35460 -2.27307 252 ft 13 kts 321°
2026-05-05 11:21 53.35579 -2.27468 249 ft 20 kts 321°
2026-05-05 11:21 53.35680 -2.27602 251 ft 14 kts 328°
2026-05-05 11:21 53.35738 -2.27644 253 ft 13 kts 339°
2026-05-05 11:22 53.35807 -2.27722 256 ft 12 kts 313°
2026-05-05 11:22 53.35865 -2.27827 258 ft 12 kts 319°
2026-05-05 11:22 53.35937 -2.27854 259 ft 11 kts 350°
2026-05-05 11:22 53.36011 -2.27902 259 ft 11 kts
2026-05-05 11:23 53.36090 -2.27891 259 ft 12 kts 335°
2026-05-05 11:23 53.36161 -2.27980 259 ft 14 kts 322°
2026-05-05 11:23 53.36233 -2.28097 259 ft 15 kts 315°
2026-05-05 11:23 53.36310 -2.28225 259 ft 17 kts 315°
2026-05-05 11:24 53.36392 -2.28373 259 ft 17 kts 303°
2026-05-05 11:24 53.36440 -2.28523 259 ft 15 kts 311°
2026-05-05 11:24 53.36518 -2.28653 259 ft 17 kts 315°
2026-05-05 11:24 53.36583 -2.28765 259 ft 11 kts 316°
2026-05-05 11:25 53.36647 -2.28751 259 ft 10 kts 40°
2026-05-05 11:25 53.36706 -2.28662 259 ft 12 kts 42°
2026-05-05 11:25 53.36768 -2.28556 259 ft 11 kts 45°
2026-05-05 11:25 53.36803 -2.28539 259 ft 5 kts 350°
2026-05-05 11:26 53.36833 -2.28572 259 ft 6 kts 320°
2026-05-05 11:26 53.36853 -2.28606 259 ft 1 kts 313°
2026-05-05 11:26 53.36855 -2.28609 259 ft 0 kts 313°